Home   Weather   20°33'N, 100°16'W   Past weeks
Flag for Mexico

Past Weather in 20°33'N, 100°16'W, Mexico — Yesterday and Last 2 Weeks

Now
55 °F

Fog.


Feels Like: 55 °F
Forecast: 78 / 57 °F
Wind: No wind

Location: Queretaro - Qro.

Current Time: Sep 18, 2019 at 8:49:58 am

Latest Report: Sep 18, 2019 at 7:41 am


Visibility: 3 mi

Pressure: 30.31 "Hg

Humidity: 94%

Dew Point: 54 °F

Location of 20°33'N, 100°16'WLocation

Past Weather in 20°33'N, 100°16'W — Graph

°F

20°33'N, 100°16'W Temperature Yesterday

Maximum temperature yesterday: 79 °F (at 4:44 pm)
Minimum temperature yesterday: 54 °F (at 4:46 am)
Average temperature yesterday: 64 °F

High & Low Weather Summary for the Past Weeks

 TemperatureHumidityPressure
High82 °F (Sep 4, 3:43 pm)100% (Sep 4, 5:41 am)30.43 "Hg (Sep 4, 5:41 am)
Low50 °F (Sep 3, 6:44 am)30% (Sep 9, 4:42 pm)30.15 "Hg (Sep 3, 5:54 pm)
Average65 °F72%30.31 "Hg
* Reported Sep 3 6:44 am — Sep 18 6:46 am, 20°33'N, 100°16'W. Weather by CustomWeather, © 2019

Note: Actual official high and low records may vary slightly from our data, if they occured in-between our weather recording intervals... More about our weather records

Advertising

20°33'N, 100°16'W Weather History for the Previous 24 Hours

Scroll right to see more
 ConditionsComfort  
Time TempWeatherWind HumidityBarometerVisibility
6:46 am
Wed, Sep 18
57 °FPassing clouds.12 mph94%30.30 "Hg4 mi
5:50 am57 °FPassing clouds.No wind94%30.29 "Hg4 mi
3:41 am57 °FPassing clouds.6 mph94%30.29 "Hg5 mi
2:40 am57 °FClear.No wind94%30.30 "Hg6 mi
1:40 am61 °FClear.6 mph83%30.31 "Hg6 mi
12:46 am63 °FClear.6 mph77%30.31 "Hg6 mi
11:41 pm
Tue, Sep 17
61 °FPassing clouds.6 mph83%30.32 "Hg6 mi
10:43 pm64 °FPassing clouds.7 mph73%30.31 "Hg6 mi
9:42 pm68 °FPassing clouds.9 mph69%30.28 "Hg7 mi
8:51 pm70 °FPassing clouds.13 mph60%30.25 "Hg7 mi
7:52 pm72 °FPassing clouds.12 mph57%30.22 "Hg7 mi
6:53 pm75 °FScattered clouds.15 mph47%30.19 "Hg8 mi
5:45 pm77 °FScattered clouds.9 mph44%30.19 "Hg8 mi
4:44 pm79 °FPartly sunny.7 mph42%30.20 "Hg7 mi
3:44 pm77 °FPartly sunny.6 mph42%30.23 "Hg7 mi
2:46 pm77 °FPartly sunny.5 mph42%30.25 "Hg7 mi
1:44 pm73 °FPartly sunny.6 mph53%30.28 "Hg7 mi
12:40 pm72 °FPartly sunny.No wind53%30.33 "Hg7 mi
11:41 am70 °FPartly sunny.12 mph60%30.35 "Hg5 mi
10:45 am66 °FPartly sunny.13 mph68%30.36 "Hg5 mi
9:44 am63 °FMostly cloudy.9 mph77%30.35 "Hg5 mi
8:42 am59 °FScattered clouds.12 mph88%30.33 "Hg5 mi
8:34 am59 °FScattered clouds.8 mph88%30.33 "Hg5 mi
Weather by CustomWeather, © 2019

See weather overview